| time (UTC) | temp F | wind direction | speed knots | gust knots | rain 1hr in | rain 24hr in | rain mn in | humidity % | barometer mb |
| 20260504031005 | 43 | 0 | 0.0 | 0.0 | 0.00 | 0.00 | 0.00 | 69 | 1012.4 |
| 20260504030526 | 43 | 261 | 0.0 | 0.9 | 0.00 | 0.00 | 0.00 | 67 | 1012.5 |
| 20260504030025 | 44 | 261 | 0.0 | 0.9 | 0.00 | 0.00 | 0.00 | 66 | 1012.5 |
| 20260504025505 | 44 | 0 | 0.0 | 0.0 | 0.00 | 0.00 | 0.00 | 66 | 1012.4 |
| 20260504025025 | 44 | 0 | 0.0 | 0.0 | 0.00 | 0.00 | 0.00 | 65 | 1012.5 |
| 20260504024505 | 45 | 0 | 0.0 | 0.0 | 0.00 | 0.00 | 0.00 | 64 | 1012.5 |
| 20260504024004 | 45 | 0 | 0.0 | 0.0 | 0.00 | 0.00 | 0.00 | 63 | 1012.5 |
| 20260504023506 | 46 | 0 | 0.0 | 0.0 | 0.00 | 0.00 | 0.00 | 63 | 1012.5 |
| 20260504023005 | 46 | 0 | 0.0 | 0.0 | 0.00 | 0.00 | 0.00 | 61 | 1012.4 |
| 20260504022504 | 46 | 0 | 0.0 | 0.0 | 0.00 | 0.00 | 0.00 | 61 | 1012.5 |
| 20260504022004 | 47 | 0 | 0.0 | 0.0 | 0.00 | 0.00 | 0.00 | 61 | 1012.5 |
| 20260504021525 | 47 | 0 | 0.0 | 0.0 | 0.00 | 0.00 | 0.00 | 60 | 1012.6 |
| 20260504021004 | 47 | 0 | 0.0 | 0.0 | 0.00 | 0.00 | 0.00 | 59 | 1012.5 |
| 20260504020504 | 48 | 0 | 0.0 | 0.0 | 0.00 | 0.00 | 0.00 | 57 | 1012.4 |
| 20260504020004 | 48 | 260 | 0.9 | 0.9 | 0.00 | 0.00 | 0.00 | 57 | 1012.5 |
| 20260504015505 | 48 | 260 | 0.0 | 0.9 | 0.00 | 0.00 | 0.00 | 57 | 1012.4 |
| 20260504015004 | 49 | 261 | 0.0 | 0.9 | 0.00 | 0.00 | 0.00 | 56 | 1012.3 |
| 20260504014527 | 49 | 259 | 0.0 | 0.9 | 0.00 | 0.00 | 0.00 | 55 | 1012.4 |
| 20260504014004 | 49 | 263 | 0.0 | 1.7 | 0.00 | 0.00 | 0.00 | 54 | 1012.3 |
| 20260504013505 | 50 | 263 | 0.0 | 1.7 | 0.00 | 0.00 | 0.00 | 54 | 1012.3 |
| 20260504013005 | 50 | 261 | 0.0 | 0.9 | 0.00 | 0.00 | 0.00 | 53 | 1012.2 |
| 20260504012504 | 50 | 252 | 0.0 | 0.9 | 0.00 | 0.00 | 0.00 | 52 | 1012.1 |
| 20260504012026 | 51 | 247 | 0.0 | 2.6 | 0.00 | 0.00 | 0.00 | 52 | 1012.1 |
| 20260504011505 | 51 | 241 | 0.0 | 2.6 | 0.00 | 0.00 | 0.00 | 52 | 1012.0 |
| 20260504011025 | 51 | 237 | 0.0 | 2.6 | 0.00 | 0.00 | 0.00 | 51 | 1012.1 |
| 20260504010504 | 51 | 234 | 0.9 | 2.6 | 0.00 | 0.00 | 0.00 | 50 | 1012.1 |
| 20260504010005 | 52 | 243 | 0.9 | 2.6 | 0.00 | 0.00 | 0.00 | 50 | 1012.1 |
| 20260504005505 | 52 | 247 | 0.0 | 2.6 | 0.00 | 0.00 | 0.00 | 49 | 1012.1 |
| 20260504005004 | 52 | 248 | 0.0 | 1.7 | 0.00 | 0.00 | 0.00 | 49 | 1012.1 |
| 20260504004505 | 52 | 248 | 0.0 | 1.7 | 0.00 | 0.00 | 0.00 | 48 | 1012.0 |
| 20260504004005 | 53 | 252 | 0.0 | 1.7 | 0.00 | 0.00 | 0.00 | 48 | 1012.0 |
| 20260504003504 | 53 | 254 | 0.0 | 0.9 | 0.00 | 0.00 | 0.00 | 47 | 1011.9 |
| 20260504003004 | 53 | 254 | 0.0 | 0.9 | 0.00 | 0.00 | 0.00 | 47 | 1011.9 |
| 20260504002505 | 54 | 253 | 0.9 | 1.7 | 0.00 | 0.00 | 0.00 | 46 | 1011.9 |
| 20260504002004 | 54 | 258 | 0.9 | 2.6 | 0.00 | 0.00 | 0.00 | 46 | 1011.9 |
| 20260504001504 | 54 | 259 | 0.9 | 2.6 | 0.00 | 0.00 | 0.00 | 45 | 1011.9 |
| 20260504001004 | 54 | 258 | 0.9 | 2.6 | 0.00 | 0.00 | 0.00 | 45 | 1011.9 |
| 20260504000504 | 55 | 249 | 1.7 | 4.3 | 0.00 | 0.00 | 0.00 | 45 | 1011.8 |
| 20260504000025 | 55 | 244 | 2.6 | 5.2 | 0.00 | 0.00 | 0.00 | 44 | 1011.8 |
| 20260503235504 | 55 | 248 | 2.6 | 5.2 | 0.00 | 0.00 | 0.00 | 44 | 1011.8 |
| 20260503235025 | 55 | 247 | 2.6 | 5.2 | 0.00 | 0.00 | 0.00 | 44 | 1011.8 |
| 20260503234526 | 55 | 243 | 2.6 | 5.2 | 0.00 | 0.00 | 0.00 | 44 | 1011.8 |
| 20260503234004 | 55 | 243 | 3.5 | 5.2 | 0.00 | 0.00 | 0.00 | 42 | 1011.8 |
| 20260503233505 | 56 | 247 | 2.6 | 6.1 | 0.00 | 0.00 | 0.00 | 42 | 1011.8 |
| 20260503233005 | 56 | 247 | 2.6 | 6.1 | 0.00 | 0.00 | 0.00 | 42 | 1011.9 |
| 20260503232504 | 56 | 246 | 2.6 | 6.1 | 0.00 | 0.00 | 0.00 | 42 | 1011.8 |
| 20260503232025 | 56 | 244 | 3.5 | 8.7 | 0.00 | 0.00 | 0.00 | 42 | 1011.9 |
| 20260503231504 | 56 | 256 | 3.5 | 9.6 | 0.00 | 0.00 | 0.00 | 42 | 1011.9 |
| 20260503231005 | 56 | 253 | 3.5 | 9.6 | 0.00 | 0.00 | 0.00 | 41 | 1011.9 |
| 20260503230505 | 56 | 241 | 3.5 | 6.1 | 0.00 | 0.00 | 0.00 | 42 | 1011.9 |
| 20260503230005 | 56 | 251 | 4.3 | 7.0 | 0.00 | 0.00 | 0.00 | 41 | 1011.9 |
| 20260503225505 | 56 | 247 | 4.3 | 12.2 | 0.00 | 0.00 | 0.00 | 41 | 1011.9 |
| 20260503225005 | 56 | 239 | 4.3 | 12.2 | 0.00 | 0.00 | 0.00 | 40 | 1011.9 |
| 20260503224504 | 56 | 243 | 3.5 | 8.7 | 0.00 | 0.00 | 0.00 | 41 | 1011.9 |
| 20260503224005 | 56 | 249 | 3.5 | 8.7 | 0.00 | 0.00 | 0.00 | 41 | 1011.9 |
| 20260503223504 | 57 | 250 | 4.3 | 8.7 | 0.00 | 0.00 | 0.00 | 41 | 1011.9 |
| 20260503223026 | 57 | 242 | 4.3 | 10.4 | 0.00 | 0.00 | 0.00 | 41 | 1011.8 |
| 20260503222505 | 57 | 239 | 4.3 | 10.4 | 0.00 | 0.00 | 0.00 | 41 | 1011.8 |
| 20260503222004 | 57 | 242 | 4.3 | 14.8 | 0.00 | 0.00 | 0.00 | 41 | 1011.8 |
| 20260503221504 | 57 | 258 | 4.3 | 14.8 | 0.00 | 0.00 | 0.00 | 42 | 1011.9 |
| 20260503221005 | 57 | 253 | 4.3 | 11.3 | 0.00 | 0.00 | 0.00 | 42 | 1011.8 |
| 20260503220504 | 57 | 242 | 5.2 | 11.3 | 0.00 | 0.00 | 0.00 | 41 | 1011.9 |
| 20260503220004 | 57 | 254 | 5.2 | 12.2 | 0.00 | 0.00 | 0.00 | 41 | 1011.9 |
| 20260503215504 | 57 | 261 | 3.5 | 12.2 | 0.00 | 0.00 | 0.00 | 40 | 1011.8 |
| 20260503215004 | 57 | 262 | 2.6 | 9.6 | 0.00 | 0.00 | 0.00 | 42 | 1011.8 |
| 20260503214504 | 57 | 240 | 3.5 | 7.8 | 0.00 | 0.00 | 0.00 | 44 | 1011.9 |
| 20260503214026 | 56 | 241 | 3.5 | 7.8 | 0.00 | 0.00 | 0.00 | 42 | 1011.9 |
| 20260503213505 | 56 | 256 | 4.3 | 10.4 | 0.00 | 0.00 | 0.00 | 42 | 1011.9 |
| 20260503213026 | 57 | 255 | 5.2 | 10.4 | 0.00 | 0.00 | 0.00 | 42 | 1011.9 |
| 20260503212505 | 57 | 253 | 5.2 | 8.7 | 0.00 | 0.00 | 0.00 | 41 | 1011.9 |
| 20260503212005 | 57 | 263 | 4.3 | 9.6 | 0.00 | 0.00 | 0.00 | 41 | 1011.9 |
| 20260503211505 | 57 | 271 | 3.5 | 9.6 | 0.00 | 0.00 | 0.00 | 41 | 1012.0 |
| 20260503211005 | 57 | 267 | 3.5 | 6.1 | 0.00 | 0.00 | 0.00 | 42 | 1011.9 |
| 20260503210505 | 57 | 273 | 3.5 | 7.8 | 0.00 | 0.00 | 0.00 | 42 | 1011.9 |
| 20260503210005 | 58 | 262 | 3.5 | 7.8 | 0.00 | 0.00 | 0.00 | 41 | 1011.9 |
| 20260503205505 | 58 | 259 | 4.3 | 9.6 | 0.00 | 0.00 | 0.00 | 43 | 1012.0 |
| 20260503205025 | 57 | 266 | 5.2 | 12.2 | 0.00 | 0.00 | 0.00 | 40 | 1011.9 |
| 20260503204505 | 57 | 266 | 5.2 | 12.2 | 0.00 | 0.00 | 0.00 | 41 | 1012.0 |
| 20260503204026 | 57 | 276 | 5.2 | 14.8 | 0.00 | 0.00 | 0.00 | 42 | 1012.0 |
| 20260503203504 | 57 | 273 | 5.2 | 14.8 | 0.00 | 0.00 | 0.00 | 40 | 1012.0 |
| 20260503203004 | 57 | 253 | 5.2 | 12.2 | 0.00 | 0.00 | 0.00 | 41 | 1012.0 |
| 20260503202504 | 58 | 249 | 4.3 | 12.2 | 0.00 | 0.00 | 0.00 | 44 | 1012.1 |
| 20260503202005 | 58 | 244 | 3.5 | 11.3 | 0.00 | 0.00 | 0.00 | 42 | 1012.2 |
| 20260503201504 | 58 | 254 | 4.3 | 9.6 | 0.00 | 0.00 | 0.00 | 43 | 1012.3 |
| 20260503201004 | 58 | 268 | 4.3 | 9.6 | 0.00 | 0.00 | 0.00 | 44 | 1012.3 |
| 20260503200525 | 58 | 263 | 4.3 | 9.6 | 0.00 | 0.00 | 0.00 | 40 | 1012.4 |
| 20260503200004 | 58 | 256 | 4.3 | 11.3 | 0.00 | 0.00 | 0.00 | 41 | 1012.5 |
| 20260503195505 | 58 | 252 | 4.3 | 11.3 | 0.00 | 0.00 | 0.00 | 41 | 1012.4 |
| 20260503195005 | 60 | 242 | 4.3 | 9.6 | 0.00 | 0.00 | 0.00 | 42 | 1012.5 |
| 20260503194504 | 59 | 245 | 3.5 | 9.6 | 0.00 | 0.00 | 0.00 | 43 | 1012.6 |
| 20260503194004 | 58 | 245 | 3.5 | 9.6 | 0.00 | 0.00 | 0.00 | 44 | 1012.7 |
| 20260503193504 | 58 | 241 | 4.3 | 8.7 | 0.00 | 0.00 | 0.00 | 41 | 1012.7 |
| 20260503193005 | 58 | 272 | 4.3 | 10.4 | 0.00 | 0.00 | 0.00 | 40 | 1012.7 |
| 20260503192504 | 58 | 265 | 4.3 | 10.4 | 0.00 | 0.00 | 0.00 | 41 | 1012.8 |
| 20260503192005 | 58 | 245 | 4.3 | 9.6 | 0.00 | 0.00 | 0.00 | 44 | 1013.0 |
| 20260503191504 | 58 | 265 | 5.2 | 10.4 | 0.00 | 0.00 | 0.00 | 39 | 1013.0 |
| 20260503191005 | 58 | 276 | 5.2 | 10.4 | 0.00 | 0.00 | 0.00 | 43 | 1013.1 |
| 20260503190504 | 58 | 271 | 4.3 | 9.6 | 0.00 | 0.00 | 0.00 | 43 | 1013.1 |
| 20260503190005 | 58 | 267 | 4.3 | 9.6 | 0.00 | 0.00 | 0.00 | 40 | 1013.2 |
| 20260503185504 | 58 | 265 | 4.3 | 9.6 | 0.00 | 0.00 | 0.00 | 45 | 1013.2 |
| 20260503185026 | 57 | 264 | 6.1 | 10.4 | 0.00 | 0.00 | 0.00 | 45 | 1013.4 |
| 20260503184504 | 56 | 279 | 7.0 | 12.2 | 0.00 | 0.00 | 0.00 | 44 | 1013.5 |
| 20260503184004 | 57 | 281 | 5.2 | 13.0 | 0.00 | 0.00 | 0.00 | 40 | 1013.6 |
| 20260503183505 | 56 | 271 | 5.2 | 13.0 | 0.00 | 0.00 | 0.00 | 44 | 1013.6 |
| 20260503183005 | 56 | 267 | 5.2 | 11.3 | 0.00 | 0.00 | 0.00 | 44 | 1013.6 |
| 20260503182526 | 56 | 261 | 5.2 | 11.3 | 0.00 | 0.00 | 0.00 | 43 | 1013.7 |
| 20260503182006 | 56 | 251 | 5.2 | 11.3 | 0.00 | 0.00 | 0.00 | 44 | 1013.7 |
| 20260503181505 | 55 | 237 | 5.2 | 11.3 | 0.00 | 0.00 | 0.00 | 45 | 1013.8 |
| 20260503181005 | 56 | 233 | 4.3 | 11.3 | 0.00 | 0.00 | 0.00 | 45 | 1013.7 |
| 20260503180505 | 56 | 252 | 5.2 | 9.6 | 0.00 | 0.00 | 0.00 | 43 | 1013.7 |
| 20260503180005 | 57 | 264 | 5.2 | 9.6 | 0.00 | 0.00 | 0.00 | 46 | 1013.8 |
| 20260503175525 | 56 | 274 | 6.1 | 13.9 | 0.00 | 0.00 | 0.00 | 43 | 1013.8 |
| 20260503175025 | 56 | 289 | 6.1 | 13.9 | 0.00 | 0.00 | 0.00 | 40 | 1013.8 |
| 20260503174525 | 56 | 297 | 5.2 | 13.0 | 0.00 | 0.00 | 0.00 | 44 | 1013.9 |
| 20260503174004 | 56 | 286 | 4.3 | 13.0 | 0.00 | 0.00 | 0.00 | 40 | 1013.9 |
| 20260503173526 | 56 | 272 | 3.5 | 11.3 | 0.00 | 0.00 | 0.00 | 43 | 1014.0 |
| 20260503173005 | 56 | 256 | 3.5 | 8.7 | 0.00 | 0.00 | 0.00 | 47 | 1013.9 |
| 20260503172504 | 54 | 237 | 4.3 | 10.4 | 0.00 | 0.00 | 0.00 | 42 | 1014.0 |
| 20260503172004 | 54 | 229 | 3.5 | 13.0 | 0.00 | 0.00 | 0.00 | 48 | 1014.1 |
| 20260503171504 | 54 | 240 | 3.5 | 13.0 | 0.00 | 0.00 | 0.00 | 46 | 1014.2 |
| 20260503171005 | 53 | 266 | 4.3 | 8.7 | 0.00 | 0.00 | 0.00 | 47 | 1014.2 |
| 20260503170504 | 53 | 268 | 5.2 | 10.4 | 0.00 | 0.00 | 0.00 | 44 | 1014.2 |
| 20260503151005 | 50 | 254 | 3.5 | 11.3 | 0.00 | 0.00 | 0.00 | 51 | 1015.1 |
| 20260503150504 | 50 | 248 | 3.5 | 11.3 | 0.00 | 0.00 | 0.00 | 50 | 1015.2 |
| 20260503131026 | 42 | 215 | 3.5 | 7.0 | 0.00 | 0.00 | 0.00 | 80 | 1015.6 |
| 20260503130505 | 41 | 215 | 1.7 | 7.0 | 0.00 | 0.00 | 0.00 | 82 | 1015.6 |
| 20260503110504 | 28 | 0 | 0.0 | 0.0 | 0.00 | 0.00 | 0.00 | 91 | 1015.3 |
| 20260503090504 | 29 | 0 | 0.0 | 0.0 | 0.00 | 0.00 | 0.00 | 88 | 1014.5 |
| 20260503081504 | 30 | 0 | 0.0 | 0.0 | 0.00 | 0.00 | 0.00 | 85 | 1014.3 |
| 20260503081004 | 30 | 0 | 0.0 | 0.0 | 0.00 | 0.00 | 0.00 | 85 | 1014.4 |
| 20260503080504 | 30 | 0 | 0.0 | 0.0 | 0.00 | 0.00 | 0.00 | 85 | 1014.4 |
| 20260503072526 | 32 | 0 | 0.0 | 0.0 | 0.00 | 0.00 | 0.00 | 82 | 1014.2 |
| 20260503072004 | 32 | 0 | 0.0 | 0.0 | 0.00 | 0.00 | 0.00 | 82 | 1014.2 |
| 20260503071504 | 33 | 0 | 0.0 | 0.0 | 0.00 | 0.00 | 0.00 | 82 | 1014.1 |
| 20260503071025 | 33 | 0 | 0.0 | 0.0 | 0.00 | 0.00 | 0.00 | 81 | 1014.1 |
| 20260503070504 | 33 | 0 | 0.0 | 0.0 | 0.00 | 0.00 | 0.00 | 81 | 1014.1 |
| 20260503055025 | 37 | 281 | 0.9 | 1.7 | 0.00 | 0.00 | 0.00 | 74 | 1014.2 |
| 20260503054525 | 37 | 280 | 0.9 | 1.7 | 0.00 | 0.00 | 0.00 | 74 | 1014.2 |
| 20260503054004 | 38 | 276 | 0.9 | 1.7 | 0.00 | 0.00 | 0.00 | 74 | 1014.2 |
| 20260503053505 | 38 | 272 | 0.9 | 2.6 | 0.00 | 0.00 | 0.00 | 74 | 1014.3 |
| 20260503053004 | 38 | 274 | 0.0 | 2.6 | 0.00 | 0.00 | 0.00 | 74 | 1014.3 |
| 20260503052504 | 38 | 282 | 0.0 | 1.7 | 0.00 | 0.00 | 0.00 | 74 | 1014.3 |
| 20260503052004 | 38 | 0 | 0.0 | 0.0 | 0.00 | 0.00 | 0.00 | 74 | 1014.3 |
| 20260503051504 | 38 | 0 | 0.0 | 0.0 | 0.00 | 0.00 | 0.00 | 74 | 1014.3 |
| 20260503051004 | 38 | 264 | 0.0 | 0.9 | 0.00 | 0.00 | 0.00 | 74 | 1014.3 |
| 20260503050504 | 38 | 263 | 0.9 | 0.9 | 0.00 | 0.00 | 0.00 | 74 | 1014.4 |
| 20260503050005 | 38 | 265 | 0.9 | 1.7 | 0.00 | 0.00 | 0.00 | 73 | 1014.4 |
| 20260503045505 | 38 | 272 | 0.9 | 3.5 | 0.00 | 0.00 | 0.00 | 73 | 1014.5 |
| 20260503045005 | 38 | 275 | 0.9 | 3.5 | 0.00 | 0.00 | 0.00 | 73 | 1014.5 |
| 20260503044504 | 38 | 277 | 0.0 | 2.6 | 0.00 | 0.00 | 0.00 | 73 | 1014.5 |
| 20260503044004 | 38 | 278 | 0.0 | 2.6 | 0.00 | 0.00 | 0.00 | 72 | 1014.4 |
| 20260503043504 | 39 | 0 | 0.0 | 0.0 | 0.00 | 0.00 | 0.00 | 72 | 1014.5 |
| 20260503043005 | 39 | 272 | 0.0 | 1.7 | 0.00 | 0.00 | 0.00 | 72 | 1014.4 |
| 20260503042504 | 39 | 272 | 0.9 | 1.7 | 0.00 | 0.00 | 0.00 | 72 | 1014.5 |
| 20260503042004 | 39 | 286 | 0.9 | 1.7 | 0.00 | 0.00 | 0.00 | 71 | 1014.5 |
| 20260503041504 | 39 | 282 | 0.9 | 1.7 | 0.00 | 0.00 | 0.00 | 70 | 1014.4 |
| 20260503041004 | 39 | 277 | 1.7 | 1.7 | 0.00 | 0.00 | 0.00 | 70 | 1014.5 |
| 20260503040504 | 39 | 279 | 1.7 | 2.6 | 0.00 | 0.00 | 0.00 | 70 | 1014.5 |
| 20260503040029 | 39 | 284 | 1.7 | 2.6 | 0.00 | 0.00 | 0.00 | 70 | 1014.5 |
| 20260503035525 | 39 | 287 | 1.7 | 2.6 | 0.00 | 0.00 | 0.00 | 69 | 1014.5 |
| 20260503035004 | 39 | 283 | 0.9 | 4.3 | 0.00 | 0.00 | 0.00 | 69 | 1014.6 |
| 20260503034504 | 39 | 278 | 0.9 | 4.3 | 0.00 | 0.00 | 0.00 | 69 | 1014.5 |
| 20260503034005 | 39 | 278 | 0.9 | 3.5 | 0.00 | 0.00 | 0.00 | 70 | 1014.5 |
| 20260503033504 | 40 | 278 | 0.9 | 3.5 | 0.00 | 0.00 | 0.00 | 69 | 1014.5 |
| 20260503033005 | 40 | 281 | 1.7 | 3.5 | 0.00 | 0.00 | 0.00 | 69 | 1014.5 |
| 20260503032505 | 40 | 281 | 1.7 | 3.5 | 0.00 | 0.00 | 0.00 | 68 | 1014.5 |
| 20260503032004 | 40 | 278 | 1.7 | 2.6 | 0.00 | 0.00 | 0.00 | 68 | 1014.6 |
| 20260503031504 | 40 | 279 | 1.7 | 2.6 | 0.00 | 0.00 | 0.00 | 68 | 1014.6 |